{"data":{"norad_id":55790,"epoch":"2026-09-20T22:00:03.000096Z","epoch_age_seconds":67070,"freshness":"FRESH","line1":"1 55790U 23028BB  26263.91670139  .00084934  00000+0  59024-2 0  9995","line2":"2 55790  70.0008  72.1350 0003850 269.9600  12.3327 15.05037961  5616","mean_motion":15.05037961,"eccentricity":0.000385,"inclination_deg":70.0008,"raan_deg":72.135,"arg_perigee_deg":269.96,"mean_anomaly_deg":12.3327,"bstar":0.0059024,"rev_number":561,"period_min":95.678649795864,"perigee_km":548.72129160248,"apogee_km":554.05702674505,"semimajor_km":6929.5261591738,"source":"CELESTRAK","updated_at":"2026-09-21T09:00:33.321434Z"}}